Location: Unnamed
(47.9062°N, 20.3783°E)
Time: 04:37:54
(UTC+02:00)

ISS - Visible Passes

Search period start: 14 April 2024 00:00
Search period end: 24 April 2024 00:00
Orbit: 413 x 419 km, 51.6° (Epoch: 13 April)

Date Brightness Start Highest point End Pass type
(mag) Time Alt. Az. Time Alt. Az. Time Alt. Az.
21 Apr -1.3 04:47:12 10° S 04:49:21 16° SE 04:51:31 10° E visible
22 Apr -0.9 04:00:37 10° SE 04:00:50 10° SE 04:01:04 10° SE visible
23 Apr -2.6 04:45:10 10° SSW 04:48:15 35° SE 04:51:20 10° ENE visible
